STARLINK-5954 (56318 NORAD) Tracking and Keplerian Element Data

This shows tracking and keplerian element data for the satellite.

Feedback or suggestion? Click here.




ElementValue
Catalog56318
NameSTARLINK-5954
Epoch Orbit179
Epoch Day126.91667824
Epoch Year2023
RAAN126.3804
Inclination97.6622
Eccentricity0.0001588
Argument of Perigee94.1033
Mean Anonmoly119.9935
Mean Motion15.68097824
Decay Rate-0.00797586
L11 56318U 23058B 23126.91667824 -.00797586 00000+0 -79121-2 0 9993
L22 56318 97.6622 126.3804 0001588 94.1033 119.9935 15.68097824 1797



Live tracking and technical data element details for STARLINK-5954 (NORAD 56318). STARLINK-5954 can be tracked NOW for your location showing map with azimuth and elevation plus other details from your city location.







IsCatalogInMostPopularTable: catalog: 56318, numindb: 3
Update: records affected: 1



GetName: 56318 STARLINK-5954

Hit Count: updated at: Sat, 03 Jun 2023 17:35:13 GMT